| time (UTC) | temp F | wind direction | speed MPH | gust MPH | rain 1hr in | rain 24hr in | rain mn in | humidity % | barometer mb |
| 20260901161804 | 80 | 111 | 0.0 | 5.0 | 0.00 | 0.00 | 0.00 | 54 | 1021.6 |
| 20260901160305 | 80 | 134 | 1.0 | 4.0 | 0.00 | 0.00 | 0.00 | 55 | 1021.8 |
| 20260901154828 | 79 | 145 | 2.0 | 7.0 | 0.00 | 0.00 | 0.00 | 57 | 1021.7 |
| 20260901153041 | 78 | 147 | 3.0 | 5.0 | 0.00 | 0.00 | 0.00 | 58 | 1021.6 |
| 20260901151823 | 77 | 158 | 2.0 | 5.0 | 0.00 | 0.00 | 0.00 | 60 | 1021.7 |
| 20260901150310 | 76 | 159 | 4.0 | 4.0 | 0.00 | 0.00 | 0.00 | 62 | 1021.9 |
| 20260901144817 | 75 | 159 | 0.0 | 4.0 | 0.00 | 0.00 | 0.00 | 64 | 1021.8 |
| 20260901143324 | 74 | 157 | 1.0 | 4.0 | 0.00 | 0.00 | 0.00 | 66 | 1021.7 |
| 20260901141807 | 72 | 160 | 2.0 | 4.0 | 0.00 | 0.00 | 0.00 | 68 | 1021.6 |
| 20260901140314 | 71 | 160 | 1.0 | 4.0 | 0.00 | 0.00 | 0.00 | 71 | 1021.5 |
| 20260901134813 | 70 | 160 | 0.0 | 3.0 | 0.00 | 0.00 | 0.00 | 72 | 1021.5 |
| 20260901133309 | 69 | 154 | 0.0 | 2.0 | 0.00 | 0.00 | 0.00 | 72 | 1021.2 |
| 20260901131803 | 69 | 154 | 2.0 | 2.0 | 0.00 | 0.00 | 0.00 | 71 | 1021.1 |
| 20260901130331 | 69 | 154 | 0.0 | 3.0 | 0.00 | 0.00 | 0.00 | 71 | 1021.2 |
| 20260901124807 | 69 | 154 | 2.0 | 5.0 | 0.00 | 0.00 | 0.00 | 71 | 1020.7 |
| 20260901123309 | 69 | 154 | 2.0 | 6.0 | 0.00 | 0.00 | 0.00 | 72 | 1020.6 |
| 20260901121546 | 69 | 154 | 2.0 | 4.0 | 0.00 | 0.00 | 0.00 | 72 | 1020.6 |
| 20260901120306 | 69 | 154 | 1.0 | 5.0 | 0.00 | 0.00 | 0.00 | 73 | 1020.5 |
| 20260901114808 | 69 | 154 | 1.0 | 4.0 | 0.00 | 0.00 | 0.00 | 73 | 1020.5 |
| 20260901113327 | 69 | 154 | 2.0 | 3.0 | 0.00 | 0.00 | 0.00 | 74 | 1020.7 |
| 20260901111544 | 69 | 154 | 0.0 | 2.0 | 0.00 | 0.00 | 0.00 | 74 | 1020.4 |
| 20260901110329 | 69 | 154 | 0.0 | 0.0 | 0.00 | 0.00 | 0.00 | 73 | 1020.5 |
| 20260901104816 | 69 | 153 | 1.0 | 1.0 | 0.00 | 0.00 | 0.00 | 73 | 1020.3 |
| 20260901103322 | 70 | 154 | 1.0 | 1.0 | 0.00 | 0.00 | 0.00 | 72 | 1020.3 |
| 20260901101807 | 70 | 154 | 0.0 | 1.0 | 0.00 | 0.00 | 0.00 | 71 | 1020.2 |
| 20260901100343 | 71 | 154 | 2.0 | 4.0 | 0.00 | 0.00 | 0.00 | 71 | 1020.1 |
| 20260901094827 | 71 | 154 | 3.0 | 6.0 | 0.00 | 0.00 | 0.00 | 71 | 1020.0 |
| 20260901093311 | 71 | 154 | 4.0 | 4.0 | 0.00 | 0.00 | 0.00 | 71 | 1020.1 |
| 20260901091832 | 71 | 154 | 1.0 | 3.0 | 0.00 | 0.00 | 0.00 | 71 | 1020.3 |
| 20260901090312 | 71 | 154 | 3.0 | 4.0 | 0.00 | 0.00 | 0.00 | 70 | 1020.3 |
| 20260901084816 | 72 | 154 | 3.0 | 5.0 | 0.00 | 0.00 | 0.00 | 69 | 1020.2 |
| 20260901083307 | 72 | 154 | 4.0 | 8.0 | 0.00 | 0.00 | 0.00 | 69 | 1020.1 |
| 20260901081806 | 72 | 154 | 2.0 | 6.0 | 0.00 | 0.00 | 0.00 | 70 | 1020.4 |
| 20260901080308 | 71 | 154 | 2.0 | 5.0 | 0.00 | 0.00 | 0.00 | 71 | 1020.4 |
| 20260901074833 | 71 | 154 | 0.0 | 3.0 | 0.00 | 0.00 | 0.00 | 71 | 1020.4 |
| 20260901073304 | 71 | 154 | 1.0 | 4.0 | 0.00 | 0.00 | 0.00 | 71 | 1020.4 |
| 20260901071809 | 71 | 154 | 4.0 | 5.0 | 0.00 | 0.00 | 0.00 | 73 | 1020.5 |
| 20260901070318 | 71 | 154 | 1.0 | 3.0 | 0.00 | 0.00 | 0.00 | 74 | 1020.5 |
| 20260901064805 | 71 | 154 | 0.0 | 1.0 | 0.00 | 0.00 | 0.87 | 73 | 1020.7 |
| 20260901063311 | 71 | 154 | 0.0 | 1.0 | 0.00 | 0.00 | 0.87 | 73 | 1020.6 |
| 20260901061808 | 71 | 154 | 0.0 | 0.0 | 0.00 | 0.00 | 0.87 | 71 | 1020.8 |
| 20260901060316 | 72 | 154 | 0.0 | 0.0 | 0.00 | 0.00 | 0.87 | 71 | 1020.9 |
| 20260901054809 | 72 | 154 | 0.0 | 0.0 | 0.00 | 0.00 | 0.87 | 70 | 1020.5 |
| 20260901053315 | 73 | 153 | 0.0 | 0.0 | 0.00 | 0.00 | 0.87 | 69 | 1020.4 |
| 20260901051816 | 74 | 153 | 0.0 | 0.0 | 0.00 | 0.00 | 0.87 | 66 | 1020.6 |
| 20260901050303 | 74 | 153 | 0.0 | 1.0 | 0.00 | 0.00 | 0.87 | 65 | 1020.7 |
| 20260901044804 | 75 | 152 | 0.0 | 5.0 | 0.00 | 0.00 | 0.87 | 64 | 1020.7 |
| 20260901043313 | 75 | 152 | 5.0 | 6.0 | 0.00 | 0.00 | 0.87 | 65 | 1020.6 |
| 20260901041801 | 75 | 152 | 2.0 | 5.0 | 0.00 | 0.00 | 0.87 | 65 | 1020.7 |
| 20260901040333 | 75 | 152 | 3.0 | 4.0 | 0.00 | 0.00 | 0.87 | 65 | 1020.7 |
| 20260901034838 | 76 | 151 | 1.0 | 4.0 | 0.00 | 0.00 | 0.87 | 64 | 1020.5 |
| 20260901033316 | 76 | 144 | 1.0 | 6.0 | 0.00 | 0.00 | 0.87 | 64 | 1020.4 |
| 20260901031821 | 76 | 142 | 2.0 | 4.0 | 0.00 | 0.00 | 0.87 | 63 | 1020.4 |
| 20260901030321 | 77 | 142 | 3.0 | 7.0 | 0.00 | 0.00 | 0.87 | 62 | 1019.9 |
| 20260901024810 | 77 | 142 | 1.0 | 6.0 | 0.00 | 0.00 | 0.87 | 62 | 1019.8 |
| 20260901023343 | 76 | 142 | 1.0 | 5.0 | 0.00 | 0.00 | 0.87 | 63 | 1019.6 |
| 20260901021806 | 76 | 143 | 0.0 | 3.0 | 0.00 | 0.00 | 0.87 | 65 | 1019.5 |
| 20260901020316 | 76 | 144 | 0.0 | 1.0 | 0.00 | 0.00 | 0.87 | 64 | 1019.3 |
| 20260901014804 | 77 | 143 | 0.0 | 2.0 | 0.00 | 0.00 | 0.87 | 63 | 1019.0 |
| 20260901013324 | 77 | 140 | 0.0 | 2.0 | 0.00 | 0.00 | 0.87 | 63 | 1018.8 |
| 20260901011806 | 77 | 98 | 0.0 | 3.0 | 0.00 | 0.00 | 0.87 | 62 | 1018.6 |
| 20260901010309 | 78 | 141 | 0.0 | 1.0 | 0.00 | 0.00 | 0.87 | 62 | 1019.0 |
| 20260901004819 | 78 | 141 | 0.0 | 0.0 | 0.00 | 0.00 | 0.87 | 59 | 1018.5 |
| 20260901003324 | 78 | 137 | 0.0 | 2.0 | 0.00 | 0.00 | 0.87 | 59 | 1018.6 |
| 20260901001809 | 79 | 140 | 0.0 | 3.0 | 0.00 | 0.00 | 0.87 | 59 | 1018.7 |
| 20260901000314 | 79 | 149 | 1.0 | 4.0 | 0.00 | 0.00 | 0.87 | 58 | 1018.7 |
| 20260831234821 | 79 | 153 | 1.0 | 8.0 | 0.00 | 0.00 | 0.87 | 59 | 1019.0 |
| 20260831233317 | 79 | 152 | 2.0 | 9.0 | 0.00 | 0.00 | 0.87 | 60 | 1018.9 |
| 20260831231822 | 80 | 152 | 0.0 | 6.0 | 0.00 | 0.00 | 0.87 | 59 | 1018.9 |
| 20260831230329 | 79 | 141 | 0.0 | 0.0 | 0.00 | 0.00 | 0.87 | 60 | 1018.9 |
| 20260831224808 | 77 | 87 | 0.0 | 0.0 | 0.00 | 0.00 | 0.87 | 61 | 1019.4 |
| 20260831223330 | 75 | 121 | 0.0 | 1.0 | 0.00 | 0.00 | 0.87 | 62 | 1019.6 |
| 20260831221532 | 74 | 88 | 0.0 | 2.0 | 0.01 | 0.00 | 0.87 | 61 | 1019.7 |
| 20260831220315 | 74 | 142 | 0.0 | 3.0 | 0.01 | 0.00 | 0.87 | 62 | 1020.1 |
| 20260831214820 | 72 | 125 | 3.0 | 6.0 | 0.02 | 0.00 | 0.87 | 69 | 1020.5 |
| 20260831213320 | 70 | 131 | 6.0 | 10.0 | 0.02 | 0.00 | 0.86 | 71 | 1020.6 |
| 20260831211808 | 69 | 89 | 7.0 | 10.0 | 0.03 | 0.00 | 0.86 | 72 | 1020.9 |
| 20260831210030 | 69 | 44 | 5.0 | 10.0 | 0.06 | 0.00 | 0.85 | 73 | 1021.3 |
| 20260831204808 | 69 | 101 | 3.0 | 11.0 | 0.00 | 0.00 | 0.85 | 73 | 1022.2 |
| 20260831203313 | 69 | 102 | 1.0 | 9.0 | 0.00 | 0.00 | 0.81 | 74 | 1022.9 |
| 20260831201814 | 68 | 102 | 1.0 | 7.0 | 0.00 | 0.00 | 0.81 | 75 | 1023.0 |
| 20260831200324 | 68 | 102 | 3.0 | 7.0 | 0.00 | 0.00 | 0.74 | 75 | 1023.6 |
| 20260831194823 | 68 | 101 | 5.0 | 7.0 | 0.12 | 0.77 | 0.74 | 75 | 1024.0 |
| 20260831193334 | 68 | 18 | 4.0 | 4.0 | 0.16 | 0.74 | 0.68 | 76 | 1024.0 |
| 20260831191842 | 68 | 289 | 1.0 | 3.0 | 0.52 | 0.73 | 0.68 | 76 | 1024.4 |
| 20260831190312 | 68 | 289 | 1.0 | 6.0 | 0.47 | 0.68 | 0.61 | 75 | 1024.1 |
| 20260831184540 | 68 | 342 | 3.0 | 13.0 | 0.44 | 0.65 | 0.21 | 75 | 1024.0 |
| 20260831183311 | 68 | 316 | 7.0 | 14.0 | 0.40 | 0.61 | 0.21 | 72 | 1024.1 |
| 20260831181818 | 70 | 305 | 14.0 | 19.0 | 0.04 | 0.25 | 0.21 | 68 | 1023.8 |
| 20260831180302 | 71 | 259 | 4.0 | 14.0 | 0.00 | 0.21 | 0.21 | 66 | 1023.5 |
| 20260831174810 | 72 | 282 | 7.0 | 15.0 | 0.00 | 0.21 | 0.21 | 66 | 1023.3 |
| 20260831173331 | 74 | 295 | 7.0 | 18.0 | 0.00 | 0.21 | 0.21 | 63 | 1023.2 |
| 20260831171812 | 76 | 297 | 4.0 | 14.0 | 0.00 | 0.21 | 0.21 | 61 | 1023.0 |
| 20260831170315 | 76 | 335 | 7.0 | 15.0 | 0.00 | 0.21 | 0.21 | 60 | 1022.8 |
| 20260831164820 | 77 | 271 | 4.0 | 10.0 | 0.00 | 0.21 | 0.21 | 61 | 1022.3 |
| 20260831163304 | 78 | 279 | 4.0 | 9.0 | 0.00 | 0.21 | 0.21 | 60 | 1021.9 |